This is the latest recevied weather packets stored in our database for station/object K0KDS. If no packets are shown the sender has not sent any weather packets the latest 10 day(s).
| Time | Temp. | Humidity | Pressure | Rain* | Wind** | Luminosity | Snow |
|---|---|---|---|---|---|---|---|
| 1777769246 | 16.67° C | 30% | 1013 hPa | 0 mm | - | - | - |
| 1777768346 | 16.67° C | 29% | 1013.1 hPa | 0 mm | - | - | - |
| 1777767446 | 17.22° C | 29% | 1013.2 hPa | 0 mm | - | - | - |
| 1777766546 | 17.22° C | 30% | 1013.4 hPa | 0 mm | - | - | - |
| 1777765646 | 17.22° C | 29% | 1013.4 hPa | 0 mm | - | - | - |
| 1777764746 | 17.78° C | 29% | 1013.6 hPa | 0 mm | - | - | - |
| 1777763846 | 17.78° C | 29% | 1013.7 hPa | 0 mm | - | - | - |
| 1777762946 | 17.78° C | 29% | 1013.9 hPa | 0 mm | - | - | - |
| 1777762046 | 17.78° C | 30% | 1014 hPa | 0 mm | - | - | - |
| 1777761146 | 17.78° C | 28% | 1014 hPa | 0 mm | - | - | - |
| 1777760246 | 17.22° C | 29% | 1014.2 hPa | 0 mm | - | - | - |
| 1777759346 | 17.22° C | 33% | 1014.4 hPa | 0 mm | - | - | - |
| 1777758446 | 17.22° C | 29% | 1014.6 hPa | 0 mm | - | - | - |
| 1777757546 | 17.22° C | 29% | 1014.8 hPa | 0 mm | - | - | - |
| 1777756646 | 16.67° C | 31% | 1015 hPa | 0 mm | - | - | - |
| 1777755746 | 16.67° C | 30% | 1015.2 hPa | 0 mm | - | - | - |
| 1777754846 | 16.67° C | 32% | 1015.2 hPa | 0 mm | - | - | - |
| 1777753946 | 16.67° C | 33% | 1015.6 hPa | 0 mm | - | - | - |
| 1777753046 | 16.11° C | 30% | 1015.7 hPa | 0 mm | - | - | - |
| 1777752146 | 16.11° C | 34% | 1016 hPa | 0 mm | - | - | - |
| 1777751246 | 16.11° C | 34% | 1016.2 hPa | 0 mm | - | - | - |
| 1777750346 | 15.56° C | 33% | 1016.2 hPa | 0 mm | - | - | - |
| 1777749446 | 15.56° C | 34% | 1016.4 hPa | 0 mm | - | - | - |
| 1777748546 | 15.56° C | 36% | 1016.9 hPa | 0 mm | - | - | - |
| 1777747646 | 15° C | 36% | 1017 hPa | 0 mm | - | - | - |
* Rain latest hour (hover to see other rain measurements)
** Current wind speed in m/s (hover to see current wind gust speed)